Fairbanks Ft. Wainwright, AK

3:26 PM AKDT on July 25, 2017 (GMT -0800)
Ladd Army Air Field

Weather History for PAFB - July, 2013

Change the Weather History Date:

Friday, July 19, 2013

  Actual Average Record
Temperature  
Mean Temperature 60 °F -  
Max Temperature 62 °F 69 °F 82 °F (2001)
Min Temperature 57 °F 53 °F 48 °F (2000)
Degree Days  
Heating Degree Days 6    
Growing Degree Days 10 (Base 50)    
Moisture  
Dew Point 55 °F    
Average Humidity 85    
Maximum Humidity 100    
Minimum Humidity 72    
Precipitation  
Precipitation 0.21 in - - ()
Sea Level Pressure  
Sea Level Pressure 30.09 in    
Wind  
Wind Speed 8 mph (WSW)    
Max Wind Speed 18 mph    
Max Gust Speed 25 mph    
Visibility 6 miles    
Events Rain    
Averages and records for this station are not official NWS values.
T = Trace of Precipitation, MM = Missing Value Source: NWS Daily Summary

Daily Weather History Graph

Daily Weather History Graph

Search for Another Location

Airport or City:

Trip Planner

Search our weather history database for the weather conditions in past years. The results will help you decide how hot, cold, wet, or windy it might be!

Date:

Astronomy

Jul. 19, 2013 Rise Set
Actual Time 4:06 AM AKDT 11:44 PM AKDT
Civil Twilight 2:29 AM AKDT 1:24 AM AKDT
Nautical Twilight Sun does not set Sun does not set
Astronomical Twilight Sun does not set Sun does not set
Moon 8:48 PM AKDT (7/19) 1:12 AM AKDT (7/19)
Length of Visible Light 22h 55m
Length of Day
19h 37m
Waxing Gibbous, 88% of the Moon is Illuminated
Jul 19
Waxing Gibbous
Jul 22
Full
Jul 29
Last Quarter
Aug 6
New
Aug 14
First Quarter

Hourly Weather History & Observations

Time (AKDT) Temp. Dew Point Humidity Pressure Visibility Wind Dir Wind Speed Gust Speed Precip Events Conditions
12:19 AM 60.8 °F 55.4 °F 82% 30.07 in 5.0 mi WNW 3.5 mph - 0.03 in Rain Rain
12:41 AM 59.0 °F 57.2 °F 94% 30.07 in 4.0 mi WNW 3.5 mph - 0.06 in Rain Rain
12:48 AM 59.0 °F 55.4 °F 88% 30.07 in 4.0 mi WNW 4.6 mph - 0.07 in Rain Light Rain
12:56 AM 59.0 °F 55.9 °F 90% 30.08 in 4.0 mi NW 4.6 mph - 0.09 in Rain Light Rain
1:04 AM 59.0 °F 55.4 °F 88% 30.07 in 2.0 mi WNW 3.5 mph - 0.04 in Rain Rain
1:11 AM 57.2 °F 55.4 °F 94% 30.08 in 2.5 mi WNW 4.6 mph - 0.05 in Rain Light Rain
1:21 AM 57.2 °F 55.4 °F 94% 30.08 in 4.0 mi NW 4.6 mph - 0.06 in Rain Light Rain
1:56 AM 57.9 °F 55.9 °F 93% 30.09 in 7.0 mi Calm Calm - 0.08 in Rain Light Rain
2:56 AM 57.9 °F 55.9 °F 93% 30.08 in 6.0 mi Calm Calm - 0.01 in Rain Light Rain
3:15 AM 57.2 °F 55.4 °F 94% 30.07 in 2.0 mi ESE 3.5 mph - 0.02 in Rain Light Rain
3:24 AM 57.2 °F 55.4 °F 94% 30.07 in 6.0 mi SE 3.5 mph - 0.02 in Rain Light Rain
3:56 AM 57.9 °F 55.9 °F 93% 30.08 in 8.0 mi SSW 4.6 mph - 0.02 in Rain Light Rain
4:08 AM 57.2 °F 57.2 °F 100% 30.07 in 10.0 mi SSW 5.8 mph - 0.00 in   Overcast
4:30 AM 57.2 °F 55.4 °F 94% 30.08 in 4.0 mi SSW 5.8 mph - 0.01 in   Overcast
4:37 AM 57.2 °F 55.4 °F 94% 30.08 in 4.0 mi SSW 6.9 mph - 0.01 in   Overcast
4:54 AM 57.2 °F 55.4 °F 94% 30.07 in 5.0 mi SW 8.1 mph - 0.01 in   Overcast
4:56 AM 59.0 °F 55.9 °F 90% 30.08 in 4.0 mi SW 8.1 mph - 0.01 in   Overcast
5:54 AM 59.0 °F 55.4 °F 88% 30.08 in 10.0 mi SW 6.9 mph - N/A   Overcast
5:56 AM 59.0 °F 55.9 °F 90% 30.08 in 10.0 mi WSW 8.1 mph - N/A   Overcast
6:20 AM 59.0 °F 55.4 °F 88% 30.08 in 6.0 mi SW 6.9 mph - N/A   Overcast
6:55 AM 59.0 °F 55.4 °F 88% 30.08 in 7.0 mi SW 6.9 mph - N/A   Overcast
7:33 AM 59.0 °F 57.2 °F 94% 30.08 in 5.0 mi SW 9.2 mph - N/A Rain Light Rain
7:55 AM 60.8 °F 55.4 °F 82% 30.09 in 6.0 mi WSW 8.1 mph - N/A Rain Light Rain
8:08 AM 60.8 °F 55.4 °F 82% 30.08 in 6.0 mi SW 11.5 mph - N/A   Overcast
8:56 AM 60.8 °F 55.4 °F 82% 30.09 in 6.0 mi SW 12.7 mph - N/A   Overcast
9:18 AM 60.8 °F 53.6 °F 77% 30.09 in 7.0 mi WSW 13.8 mph - N/A   Mostly Cloudy
9:40 AM 60.8 °F 55.4 °F 82% 30.10 in 7.0 mi WSW 10.4 mph - N/A   Mostly Cloudy
9:55 AM 60.8 °F 55.4 °F 82% 30.10 in 7.0 mi WSW 11.5 mph - N/A   Mostly Cloudy
9:58 AM 60.8 °F 55.4 °F 82% 30.10 in 5.0 mi WSW 13.8 mph - N/A Rain Light Rain
10:35 AM 59.0 °F 55.4 °F 88% 30.10 in 2.0 mi SW 13.8 mph 25.3 mph N/A Rain Light Rain
10:37 AM 59.0 °F 55.4 °F 88% 30.10 in 3.0 mi SW 15.0 mph 24.2 mph N/A Rain Light Rain
10:55 AM 59.0 °F 55.4 °F 88% 30.11 in 3.0 mi WSW 13.8 mph - N/A Rain Light Rain
11:01 AM 59.0 °F 55.4 °F 88% 30.10 in 1.0 mi WSW 13.8 mph - N/A Rain Light Rain
11:05 AM 59.0 °F 55.4 °F 88% 30.10 in 3.0 mi WSW 16.1 mph - N/A Rain Light Rain
11:55 AM 59.0 °F 57.2 °F 94% 30.12 in 5.0 mi WSW 15.0 mph - N/A Rain Light Rain
12:55 PM 60.8 °F 53.6 °F 77% 30.12 in 5.0 mi WSW 15.0 mph 23.0 mph N/A Rain Light Rain Showers
1:55 PM 60.8 °F 53.6 °F 77% 30.12 in 5.0 mi WSW 17.3 mph 24.2 mph N/A Rain Light Rain Showers
2:55 PM 60.8 °F 55.4 °F 82% 30.12 in 5.0 mi WSW 18.4 mph 23.0 mph N/A Rain Light Rain Showers
3:55 PM 60.8 °F 53.6 °F 77% 30.12 in 6.0 mi WSW 18.4 mph - N/A Rain Light Rain Showers
4:55 PM 60.8 °F 55.4 °F 82% 30.12 in 5.0 mi WSW 16.1 mph - N/A Rain Light Rain Showers
5:55 PM 60.8 °F 55.4 °F 82% 30.11 in 6.0 mi West 15.0 mph - N/A Rain Light Rain Showers
6:55 PM 60.8 °F 53.6 °F 77% 30.10 in 7.0 mi West 13.8 mph 23.0 mph N/A   Overcast
7:55 PM 62.6 °F 53.6 °F 72% 30.10 in 7.0 mi West 15.0 mph - N/A   Overcast
8:55 PM 60.8 °F 51.8 °F 72% 30.10 in 7.0 mi West 15.0 mph 24.2 mph N/A   Overcast
9:55 PM 60.8 °F 51.8 °F 72% 30.11 in 7.0 mi WSW 13.8 mph - N/A   Overcast
10:09 PM 60.8 °F 51.8 °F 72% 30.10 in 10.0 mi West 13.8 mph - N/A   Overcast
10:56 PM 59.0 °F 51.1 °F 75% 30.12 in 10.0 mi WSW 16.1 mph - N/A   Overcast
11:24 PM 57.2 °F 50.0 °F 77% 30.12 in 10.0 mi West 17.3 mph - N/A   Overcast
11:56 PM 57.9 °F 50.0 °F 75% 30.12 in 10.0 mi West 15.0 mph 19.6 mph N/A   Overcast